Location: Sternwarte ZA, Rosenfeld-Brittheim
(48.2889°N, 8.6789°E)
Time: 22:04:09
(UTC+02:00)

ISS - Pass Details

Date: 15 September 2019
Orbit: 411 x 421 km, 51.6° (Epoch: 19 September)

Event Time Altitude Azimuth Distance (km) Brightness Sun altitude
Exits shadow 05:32:28 20° 195° (SSW) 1,015 -2.2 -15.1°
Drops below altitude 10° 05:34:16 10° 165° (SSE) 1,486 -1.1 -14.9°
Sets 05:36:37 0° 150° (SSE) 2,347 0.1 -14.5°
